ZL3DRP Weather Reports


time (UTC)temp
C
wind
direction
speed
KPH
gust
KPH
rain 1hr
cm
rain 24hr
cm
rain mn
cm
humidity
%
barometer
mb
20260504050503 10 123 1.6 4.8 0.00 0.05 0.05 85 1028.4
20260504050003 10 123 1.6 4.8 0.00 0.05 0.05 85 1028.3
20260504045503 10 123 1.6 3.2 0.00 0.05 0.05 85 1028.3
20260504045004 10 123 3.2 4.8 0.00 0.05 0.05 85 1028.4
20260504044503 10 125 3.2 4.8 0.00 0.05 0.05 84 1028.4
20260504044024 10 127 3.2 4.8 0.00 0.05 0.05 84 1028.4
20260504043503 10 127 1.6 4.8 0.00 0.05 0.05 84 1028.4
20260504043003 10 128 3.2 4.8 0.00 0.05 0.05 84 1028.4
20260504042524 10 128 3.2 4.8 0.00 0.05 0.05 85 1028.4
20260504042024 10 134 1.6 4.8 0.00 0.05 0.05 85 1028.4
20260504041524 10 141 1.6 4.8 0.00 0.05 0.05 85 1028.4
20260504041003 10 142 1.6 4.8 0.00 0.05 0.05 85 1028.5
20260504040504 10 143 3.2 4.8 0.00 0.05 0.05 85 1028.5
20260504040003 10 143 3.2 4.8 0.00 0.05 0.05 85 1028.5
20260504035503 10 143 1.6 6.4 0.00 0.05 0.05 84 1028.5
20260504035003 10 143 3.2 6.4 0.00 0.05 0.05 84 1028.5
20260504034503 10 143 3.2 6.4 0.00 0.05 0.05 85 1028.5
20260504034003 10 144 3.2 6.4 0.00 0.05 0.05 85 1028.6
20260504033503 10 145 3.2 6.4 0.00 0.05 0.05 84 1028.5
20260504033003 10 140 3.2 6.4 0.00 0.05 0.05 84 1028.6
20260504032503 10 128 3.2 6.4 0.00 0.05 0.05 84 1028.6
20260504032004 10 130 3.2 6.4 0.00 0.05 0.05 84 1028.6
20260504031503 10 143 3.2 6.4 0.00 0.05 0.05 83 1028.7
20260504031003 10 153 3.2 6.4 0.00 0.05 0.05 82 1028.7
20260504030503 11 168 3.2 8.0 0.00 0.05 0.05 82 1028.6
20260504030003 11 173 4.8 8.0 0.00 0.05 0.05 82 1028.6
20260504025503 11 152 4.8 8.0 0.00 0.05 0.05 83 1028.7
20260504025003 11 141 4.8 8.0 0.00 0.05 0.05 82 1028.7
20260504024503 11 135 4.8 8.0 0.00 0.05 0.05 82 1028.7
20260504024025 11 136 4.8 8.0 0.00 0.05 0.05 82 1028.7
20260504023503 11 151 4.8 8.0 0.00 0.05 0.05 82 1028.7
20260504023004 11 167 4.8 8.0 0.00 0.05 0.05 81 1028.7
20260504022503 11 154 4.8 8.0 0.00 0.05 0.05 81 1028.8
20260504022003 11 125 4.8 11.3 0.00 0.05 0.05 80 1028.8
20260504021503 11 119 4.8 11.3 0.00 0.05 0.05 81 1028.8
20260504021003 11 128 4.8 11.3 0.00 0.05 0.05 81 1028.9
20260504020503 11 143 4.8 9.7 0.00 0.05 0.05 79 1028.9
20260504020004 11 161 4.8 9.7 0.00 0.05 0.05 80 1029.0
20260504015503 11 163 4.8 8.0 0.00 0.05 0.05 79 1029.0
20260504015003 12 165 4.8 9.7 0.00 0.05 0.05 78 1029.0
20260504014503 12 164 4.8 9.7 0.00 0.05 0.05 78 1028.9
20260504014003 12 155 4.8 8.0 0.00 0.05 0.05 78 1029.1
20260504013503 12 168 4.8 11.3 0.00 0.05 0.05 76 1029.1
20260504013003 13 173 3.2 11.3 0.00 0.05 0.05 75 1029.1
20260504012524 13 168 3.2 8.0 0.00 0.05 0.05 75 1029.2
20260504012003 13 149 3.2 8.0 0.00 0.05 0.05 77 1029.3
20260504011503 12 132 4.8 9.7 0.00 0.05 0.05 76 1029.3
20260504011003 12 142 4.8 9.7 0.00 0.05 0.05 77 1029.3
20260504010524 12 130 4.8 11.3 0.00 0.05 0.05 77 1029.5
20260504010004 12 142 4.8 11.3 0.00 0.05 0.05 77 1029.5
20260504005524 12 155 4.8 9.7 0.05 0.05 0.05 76 1029.7
20260504005004 12 133 4.8 9.7 0.05 0.05 0.05 77 1029.8
20260504004503 12 125 4.8 11.3 0.05 0.05 0.05 78 1029.8
20260504004004 12 131 4.8 11.3 0.05 0.05 0.05 75 1030.0
20260504003525 12 138 3.2 8.0 0.05 0.05 0.05 77 1030.0
20260504003003 12 141 3.2 6.4 0.05 0.05 0.05 77 1030.1
20260504002503 12 158 3.2 8.0 0.05 0.05 0.05 76 1030.2
20260504002003 12 147 4.8 11.3 0.05 0.05 0.05 76 1030.3
20260504001524 11 128 4.8 12.9 0.05 0.05 0.05 77 1030.4
20260504001024 12 143 4.8 12.9 0.05 0.05 0.05 76 1030.5
20260504000523 12 152 4.8 14.5 0.05 0.05 0.05 76 1030.6
20260504000002 11 136 4.8 14.5 0.05 0.05 0.05 76 1030.6
20260503235502 11 144 4.8 9.7 0.00 0.00 0.00 74 1030.6
20260503235002 12 169 4.8 9.7 0.00 0.00 0.00 75 1030.7
20260503234502 12 172 4.8 9.7 0.00 0.00 0.00 73 1030.8
20260503234002 12 164 4.8 9.7 0.00 0.00 0.00 74 1030.7
20260503233523 12 153 4.8 9.7 0.00 0.00 0.00 75 1030.8
20260503233002 12 174 4.8 12.9 0.00 0.00 0.00 73 1030.7
20260503232502 12 202 4.8 12.9 0.00 0.00 0.00 73 1030.8
20260503232002 12 202 4.8 8.0 0.00 0.00 0.00 70 1030.8
20260503231502 11 199 4.8 8.0 0.00 0.00 0.00 70 1030.8
20260503231002 11 185 4.8 9.7 0.00 0.00 0.00 71 1030.9
20260503230502 11 158 3.2 9.7 0.00 0.00 0.00 70 1030.9
20260503230002 11 154 3.2 9.7 0.00 0.00 0.00 70 1030.8
20260503225503 11 155 4.8 8.0 0.00 0.00 0.00 70 1030.8
20260503225002 11 151 3.2 8.0 0.00 0.00 0.00 71 1030.8
20260503224502 11 172 3.2 8.0 0.00 0.00 0.00 72 1030.9
20260503224002 11 196 3.2 6.4 0.00 0.00 0.00 73 1030.8
20260503223502 11 186 3.2 8.0 0.00 0.00 0.00 75 1030.7
20260503223024 11 172 3.2 8.0 0.00 0.00 0.00 77 1030.7
20260503222502 10 173 1.6 6.4 0.00 0.00 0.00 76 1030.7
20260503222002 10 210 1.6 4.8 0.00 0.00 0.00 77 1030.7
20260503221502 11 243 1.6 4.8 0.00 0.00 0.00 78 1030.7
20260503221003 10 261 1.6 4.8 0.00 0.00 0.00 78 1030.6
20260503220503 10 272 1.6 4.8 0.00 0.00 0.00 80 1030.6
20260503220023 10 274 1.6 4.8 0.00 0.00 0.00 80 1030.6
20260503215502 9 279 1.6 4.8 0.00 0.00 0.00 81 1030.7
20260503215002 8 284 1.6 4.8 0.00 0.00 0.00 81 1030.7
20260503214502 8 286 1.6 3.2 0.00 0.00 0.00 82 1030.7
20260503214002 8 290 1.6 4.8 0.00 0.00 0.00 84 1030.7
20260503213502 8 292 1.6 4.8 0.00 0.00 0.00 84 1030.7
20260503213002 7 292 1.6 3.2 0.00 0.00 0.00 85 1030.6
20260503212524 7 293 1.6 3.2 0.00 0.00 0.00 86 1030.6
20260503212002 6 293 1.6 3.2 0.00 0.00 0.00 86 1030.7
20260503211523 6 293 1.6 3.2 0.00 0.00 0.00 87 1030.7
20260503211003 5 293 1.6 3.2 0.00 0.00 0.00 87 1030.7
20260503210502 5 293 0.0 3.2 0.00 0.00 0.00 87 1030.7
20260503210004 4 293 0.0 3.2 0.00 0.00 0.00 88 1030.7
20260503205524 4 293 0.0 1.6 0.00 0.00 0.00 88 1030.7
20260503205002 3 293 1.6 3.2 0.00 0.00 0.00 88 1030.8
20260503204523 3 293 1.6 3.2 0.00 0.00 0.00 88 1030.7
20260503204024 2 293 0.0 3.2 0.00 0.00 0.00 88 1030.7
20260503203503 2 293 0.0 1.6 0.00 0.00 0.00 88 1030.6
20260503203002 1 293 1.6 3.2 0.00 0.00 0.00 88 1030.5
20260503202523 1 293 1.6 3.2 0.00 0.00 0.00 88 1030.5
20260503202002 0 293 0.0 3.2 0.00 0.00 0.00 88 1030.4
20260503201502 0 293 0.0 3.2 0.00 0.00 0.00 88 1030.3
20260503201003 0 293 0.0 3.2 0.00 0.00 0.00 88 1030.3
20260503200503 0 293 0.0 1.6 0.00 0.00 0.00 88 1030.3
20260503200002 0 293 0.0 1.6 0.00 0.03 0.00 88 1030.2
20260503195503 -1 293 1.6 1.6 0.00 0.03 0.00 88 1030.1
20260503195002 -1 293 1.6 3.2 0.00 0.03 0.00 88 1030.1
20260503194502 -1 293 1.6 3.2 0.00 0.03 0.00 88 1030.2
20260503194003 -1 293 0.0 3.2 0.00 0.03 0.00 88 1030.1
20260503193523 -1 293 0.0 3.2 0.00 0.03 0.00 88 1030.0
20260503193002 -1 293 1.6 3.2 0.00 0.03 0.00 88 1030.0
20260503192502 -1 293 1.6 4.8 0.00 0.03 0.00 88 1030.0
20260503192003 -1 292 1.6 4.8 0.00 0.03 0.00 88 1029.9
20260503191502 -1 291 1.6 4.8 0.00 0.03 0.00 88 1029.9
20260503191002 -1 290 1.6 3.2 0.00 0.03 0.00 88 1029.9
20260503190502 -1 290 1.6 3.2 0.00 0.03 0.00 88 1030.0
20260503190024 -1 290 1.6 4.8 0.00 0.03 0.00 88 1029.9
20260503185503 -1 290 1.6 4.8 0.00 0.03 0.00 88 1029.9
20260503185002 -1 290 1.6 3.2 0.00 0.03 0.00 88 1030.0
20260503184503 -1 290 1.6 3.2 0.00 0.03 0.00 88 1030.0
20260503184003 -1 290 1.6 3.2 0.00 0.03 0.00 88 1030.0
20260503183524 -1 290 1.6 3.2 0.00 0.03 0.00 88 1030.0
20260503183002 -1 290 3.2 4.8 0.00 0.03 0.00 88 1030.0
20260503182503 -1 290 1.6 4.8 0.00 0.03 0.00 88 1030.0
20260503182003 -1 289 1.6 4.8 0.00 0.03 0.00 88 1029.9
20260503181524 -1 289 1.6 3.2 0.00 0.03 0.00 88 1030.0
20260503181003 -1 289 0.0 3.2 0.00 0.03 0.00 88 1030.0
20260503180502 -1 289 1.6 1.6 0.00 0.03 0.00 88 1030.0
20260503180003 -1 289 1.6 3.2 0.00 0.03 0.00 88 1029.9
20260503175502 -1 289 1.6 3.2 0.00 0.03 0.00 88 1029.9
20260503175003 -1 289 1.6 3.2 0.00 0.03 0.00 88 1029.8
20260503174503 -1 289 1.6 4.8 0.00 0.03 0.00 88 1029.8
20260503174002 -1 279 1.6 6.4 0.00 0.03 0.00 88 1029.7
20260503173503 -2 249 1.6 6.4 0.00 0.03 0.00 88 1029.7
20260503173003 -1 232 1.6 3.2 0.00 0.03 0.00 88 1029.7
20260503172503 -1 232 1.6 3.2 0.00 0.03 0.00 88 1029.7
20260503172023 -1 232 3.2 3.2 0.00 0.03 0.00 88 1029.7
20260503171503 -1 232 4.8 4.8 0.00 0.03 0.00 88 1029.7
20260503171024 -1 248 4.8 4.8 0.00 0.03 0.00 87 1029.7
20260503170502 -1 263 3.2 4.8 0.00 0.03 0.00 87 1029.7
20260503150503 0 274 1.6 3.2 0.00 0.03 0.00 87 1029.7
20260503131003 0 217 3.2 6.4 0.00 0.03 0.00 86 1030.2
20260503130503 0 237 1.6 6.4 0.00 0.03 0.00 87 1030.1
20260503110503 0 8 0.0 1.6 0.00 0.03 0.03 86 1030.4
20260503081503 5 358 1.6 3.2 0.00 0.03 0.03 83 1030.0
20260503081003 5 358 1.6 3.2 0.00 0.03 0.03 83 1030.0
20260503080503 5 357 1.6 4.8 0.00 0.03 0.03 83 1030.0
20260503072503 5 358 1.6 3.2 0.00 0.03 0.03 78 1029.9
20260503072024 5 358 1.6 3.2 0.00 0.03 0.03 77 1029.9
20260503071503 6 358 1.6 3.2 0.00 0.03 0.03 77 1029.9
20260503071003 6 358 1.6 4.8 0.00 0.03 0.03 76 1030.0
20260503070503 6 358 3.2 4.8 0.00 0.03 0.03 75 1029.9